Probability
0 0 0 0 0 0 0 0 0 0 6 16 19 19 19 16 16 16 16 16 13 23 23 23 26 26 23 26 32 23 23 19 19 19 23 26 26 13 13 13 10 10 13 13
0 0 0 0 0 0 0 3 0 3 13 19 13 13 10 13 13 13 19 13 6 16 19 23 19 23 19 19 23 19 19 13 16 16 10 10 13 13 13 6 6 6 6 10
0 0 0 0 0 0 3 6 6 6 13 13 13 10 10 10 10 16 19 19 13 19 26 26 19 23 19 19 19 19 10 10 10 10 10 13 6 6 16 16 13 13 13 10
0 0 0 3 0 3 3 3 6 10 16 10 6 10 10 10 10 13 23 19 26 23 23 23 19 23 23 19 16 16 10 10 10 10 6 6 10 10 10 10 16 16 13 10
0 0 0 0 0 0 3 0 0 6 6 10 10 10 13 13 13 16 19 29 32 26 23 19 19 19 19 16 16 13 10 10 10 10 10 10 10 10 10 10 13 10 10 6
0 0 0 3 0 0 3 3 0 3 6 10 10 13 10 10 10 13 19 29 32 32 26 26 26 23 19 16 16 16 13 13 13 13 10 10 10 13 10 10 10 10 10 10
0 0 3 0 0 0 3 3 6 10 6 10 6 10 6 13 16 16 19 23 26 29 29 32 26 19 19 19 16 16 13 13 10 10 6 6 10 10 10 10 10 10 10 10
0 0 3 3 3 0 13 16 13 16 6 10 6 6 6 10 23 19 19 19 19 26 26 29 26 16 16 23 16 13 13 13 13 10 6 3 10 6 6 6 10 10 10 10
0 0 3 0 6 6 6 10 10 6 6 6 6 10 10 16 19 19 19 19 23 26 23 19 19 19 19 19 13 16 13 13 13 10 10 6 6 6 6 6 6 10 10 10
6 3 3 3 6 6 6 6 6 6 6 6 6 10 16 16 19 23 19 19 26 26 19 19 19 19 13 10 13 10 10 10 10 10 10 6 6 6 6 6 6 6 6 3
3 3 6 3 6 6 6 6 6 6 6 6 6 6 16 19 19 19 23 23 23 23 16 10 10 6 6 6 6 6 10 10 10 10 6 6 6 6 3 3 3 3 3 3
0 6 6 6 6 6 6 6 6 6 6 6 6 10 13 19 23 23 26 23 23 19 13 10 6 6 6 3 6 6 6 3 6 10 3 3 3 3 0 0 0 0 0 0
6 6 6 3 3 3 3 3 3 6 6 6 10 13 13 19 13 16 16 10 13 13 16 13 10 3 3 3 6 6 0 3 3 3 3 3 3 3 3 0 0 0 0 0
6 6 6 3 3 3 3 3 3 6 6 6 10 13 13 16 16 6 6 10 10 13 13 3 3 3 6 3 3 3 3 0 3 3 3 3 3 3 3 3 3 0 0 0
0 3 6 6 3 3 3 6 10 3 6 6 13 13 13 10 13 10 6 6 10 10 6 3 3 3 3 3 3 3 3 6 3 3 3 3 3 3 3 3 6 3 0 0
0 3 3 3 3 3 3 10 6 6 10 10 10 10 10 10 10 13 10 6 6 6 6 3 3 6 3 3 3 6 6 3 3 3 3 3 3 3 3 3 6 0 0 0
0 3 3 3 3 3 3 3 6 6 13 13 13 13 10 13 13 13 13 10 10 10 10 6 6 6 3 3 6 6 6 3 0 3 3 3 3 3 3 3 3 3 0 0
0 0 0 0 0 3 3 3 3 6 13 13 13 13 13 13 13 13 10 13 10 6 6 6 3 0 3 3 6 6 6 6 6 6 6 3 3 3 3 6 3 0 0 0
0 0 0 0 0 0 0 6 6 10 10 10 10 13 13 13 10 10 10 13 13 13 13 6 0 3 3 6 3 6 6 6 6 6 3 0 0 0 3 3 3 0 0 0
0 0 0 0 0 3 3 3 3 6 10 10 10 10 10 10 10 10 10 13 13 13 13 10 3 6 3 6 0 3 3 3 3 3 3 0 0 0 3 3 0 0 0 0
0 0 3 3 3 3 3 3 3 3 3 6 10 10 10 10 10 10 10 10 13 13 10 0 6 6 3 3 0 3 3 3 0 3 0 0 0 3 3 0 0 0 0 0
3 3 3 3 3 3 3 3 3 3 3 3 3 6 6 6 6 10 10 10 13 6 6 6 6 3 0 0 3 6 0 0 0 0 0 0 3 3 0 0 0 0 0 0
3 3 3 3 3 3 3 3 3 3 3 3 3 3 3 3 3 3 6 3 3 3 6 10 3 0 0 0 3 3 3 3 3 0 0 0 0 0 0 0 0 0 0 0
0 3 3 3 3 3 3 3 3 3 3 3 3 3 3 3 0 0 0 0 0 0 3 0 0 0 0 3 3 3 3 3 3 3 3 3 0 0 0 0 0 0 0 0
3 3 3 3 0 0 0 0 0 0 0 0 0 0 0 0 0 0 0 0 0 0 3 0 0 0 0 3 3 3 3 3 3 3 3 3 3 0 0 0 0 0 0 0
0 0 0 0 0 0 0 0 0 0 0 0 0 0 0 0 0 0 0 0 0 0 0 0 0 0 0 0 0 0 0 3 3 3 3 3 3 3 0 0 0 3 0 0
0 0 0 0 0 0 0 0 0 0 0 0 0 0 0 0 0 0 0 0 0 0 0 0 0 0 0 0 0 0 0 0 0 0 0 0 0 0 0 0 0 0 0 0
Height
5774 5777 5779 5781 5783 5786 5788 5791 5793 5794 5795 5796 5796 5796 5797 5797 5797 5798 5797 5797 5797 5798 5799 5800 5801 5802 5803 5804 5804 5805 5805 5806 5806 5806 5806 5806 5806 5806 5806 5806 5806 5806 5806 5806
5768 5770 5772 5775 5777 5779 5782 5784 5785 5787 5788 5789 5789 5790 5790 5791 5792 5792 5792 5793 5793 5794 5794 5795 5796 5798 5799 5800 5800 5801 5801 5802 5802 5802 5803 5803 5803 5803 5803 5803 5803 5803 5803 5803
5762 5764 5766 5768 5771 5773 5776 5777 5779 5780 5782 5782 5783 5783 5784 5785 5786 5787 5788 5788 5789 5789 5790 5791 5792 5793 5794 5795 5796 5796 5797 5797 5798 5798 5799 5799 5800 5800 5800 5800 5800 5800 5800 5800
5756 5758 5760 5764 5765 5767 5769 5771 5772 5773 5774 5775 5776 5777 5778 5779 5779 5781 5782 5783 5784 5784 5785 5786 5787 5788 5789 5790 5791 5792 5792 5793 5793 5794 5795 5795 5796 5796 5796 5796 5797 5797 5796 5796
5749 5752 5754 5756 5758 5760 5762 5763 5765 5766 5767 5768 5769 5770 5771 5772 5773 5775 5776 5777 5778 5779 5780 5781 5782 5783 5784 5785 5786 5787 5787 5788 5789 5789 5790 5791 5791 5791 5792 5792 5792 5792 5792 5791
5743 5745 5747 5749 5751 5753 5755 5755 5757 5759 5760 5762 5763 5764 5765 5765 5766 5768 5769 5770 5772 5773 5774 5775 5777 5778 5779 5780 5781 5782 5783 5783 5784 5785 5785 5786 5786 5787 5787 5787 5787 5787 5786 5786
5736 5738 5740 5741 5743 5746 5749 5750 5751 5752 5753 5754 5756 5757 5758 5759 5760 5761 5762 5764 5765 5767 5768 5770 5771 5772 5774 5775 5776 5777 5777 5778 5779 5780 5780 5781 5781 5781 5781 5781 5781 5781 5781 5781
5729 5731 5734 5734 5737 5739 5741 5742 5743 5745 5746 5747 5749 5750 5751 5752 5753 5755 5756 5757 5759 5760 5762 5763 5765 5766 5768 5769 5770 5771 5772 5773 5773 5774 5775 5775 5776 5776 5776 5776 5776 5775 5775 5775
5723 5726 5726 5728 5730 5731 5733 5734 5736 5737 5739 5740 5742 5743 5745 5746 5747 5748 5749 5750 5752 5754 5756 5757 5759 5760 5762 5763 5764 5764 5765 5766 5767 5768 5769 5769 5769 5770 5770 5770 5770 5770 5769 5769
5716 5718 5719 5721 5723 5724 5726 5727 5728 5730 5731 5733 5735 5737 5738 5739 5740 5741 5742 5744 5746 5748 5749 5751 5752 5754 5755 5756 5757 5758 5759 5759 5760 5761 5762 5762 5763 5763 5763 5764 5763 5763 5763 5762
5709 5711 5713 5715 5716 5717 5718 5720 5721 5723 5724 5726 5728 5730 5731 5733 5734 5735 5736 5738 5739 5741 5743 5744 5745 5747 5748 5749 5750 5750 5751 5752 5753 5754 5754 5755 5756 5756 5757 5757 5757 5757 5756 5755
5704 5705 5707 5708 5709 5710 5712 5713 5714 5715 5717 5719 5721 5723 5725 5726 5727 5729 5730 5731 5732 5734 5735 5737 5738 5739 5740 5741 5742 5743 5744 5744 5745 5746 5747 5748 5748 5749 5749 5749 5749 5749 5749 5748
5698 5699 5700 5702 5703 5704 5705 5706 5707 5708 5710 5712 5714 5716 5718 5720 5721 5722 5724 5725 5726 5727 5728 5730 5731 5732 5733 5734 5734 5735 5737 5737 5738 5739 5740 5740 5741 5741 5742 5742 5742 5741 5741 5741
5693 5694 5695 5696 5697 5698 5698 5699 5701 5702 5704 5706 5708 5709 5711 5713 5714 5716 5717 5718 5719 5720 5721 5723 5724 5725 5726 5727 5727 5728 5729 5730 5731 5732 5732 5733 5734 5734 5734 5734 5734 5734 5734 5733
5688 5689 5690 5690 5691 5692 5693 5694 5695 5696 5698 5700 5701 5703 5704 5706 5707 5709 5710 5712 5713 5714 5715 5716 5717 5718 5719 5720 5721 5721 5722 5723 5724 5725 5726 5726 5727 5727 5727 5727 5726 5726 5726 5725
5683 5684 5685 5686 5687 5687 5688 5689 5690 5691 5692 5694 5695 5697 5698 5700 5701 5702 5703 5705 5706 5707 5708 5709 5710 5711 5712 5713 5714 5715 5716 5716 5717 5718 5719 5719 5720 5720 5720 5720 5719 5719 5719 5718
5679 5680 5681 5682 5683 5683 5683 5684 5685 5686 5687 5689 5690 5691 5692 5694 5695 5696 5697 5699 5700 5701 5702 5703 5704 5704 5705 5706 5707 5708 5709 5710 5710 5711 5712 5712 5713 5713 5713 5713 5713 5712 5712 5712
5676 5676 5677 5678 5679 5679 5679 5680 5681 5682 5682 5683 5684 5685 5687 5688 5689 5690 5691 5692 5693 5694 5695 5696 5697 5698 5699 5700 5700 5701 5702 5703 5703 5704 5705 5705 5705 5706 5706 5706 5706 5705 5705 5705
5672 5672 5673 5674 5675 5675 5676 5676 5677 5677 5678 5679 5679 5681 5682 5683 5684 5684 5685 5686 5687 5688 5689 5689 5689 5690 5691 5692 5693 5694 5695 5696 5697 5697 5698 5698 5698 5698 5698 5698 5698 5698 5698 5698
5668 5669 5670 5670 5671 5671 5672 5673 5673 5674 5674 5675 5675 5676 5677 5678 5679 5679 5680 5680 5681 5682 5682 5682 5683 5683 5684 5685 5686 5687 5688 5689 5690 5690 5691 5691 5691 5692 5692 5691 5691 5691 5691 5690
5664 5665 5666 5666 5667 5668 5668 5669 5669 5670 5670 5671 5672 5672 5673 5673 5674 5674 5674 5675 5675 5675 5676 5676 5676 5677 5677 5678 5679 5681 5682 5682 5683 5684 5684 5684 5684 5685 5685 5684 5684 5684 5684 5683
5661 5661 5662 5663 5663 5664 5665 5665 5666 5666 5667 5667 5668 5668 5669 5669 5669 5669 5670 5670 5670 5670 5670 5670 5670 5670 5671 5672 5673 5674 5675 5676 5676 5677 5677 5677 5678 5678 5678 5678 5677 5677 5676 5676
5658 5658 5659 5659 5660 5660 5661 5661 5662 5662 5663 5663 5663 5664 5664 5664 5664 5664 5665 5665 5665 5665 5665 5665 5665 5665 5666 5667 5668 5668 5669 5669 5670 5670 5671 5671 5671 5671 5671 5671 5670 5670 5669 5669
5654 5655 5655 5656 5656 5656 5657 5657 5658 5658 5658 5659 5659 5659 5660 5660 5660 5660 5660 5660 5660 5660 5660 5660 5660 5660 5661 5661 5662 5662 5663 5663 5664 5664 5664 5664 5665 5665 5664 5664 5663 5662 5662 5661
5651 5651 5652 5652 5652 5653 5653 5653 5654 5654 5654 5655 5655 5655 5655 5655 5655 5655 5656 5655 5655 5655 5655 5655 5655 5655 5655 5656 5656 5656 5657 5657 5657 5658 5658 5658 5658 5658 5657 5657 5656 5655 5654 5653
5647 5647 5648 5648 5648 5649 5649 5649 5650 5650 5650 5650 5651 5651 5651 5651 5651 5651 5651 5651 5650 5650 5650 5650 5650 5650 5650 5650 5650 5650 5650 5651 5651 5651 5651 5651 5651 5650 5650 5649 5648 5647 5646 5645
5643 5643 5643 5643 5644 5644 5645 5645 5645 5645 5646 5646 5646 5646 5646 5646 5646 5646 5646 5646 5645 5645 5645 5644 5644 5644 5644 5643 5643 5644 5644 5644 5644 5644 5644 5644 5643 5643 5642 5641 5640 5640 5639 5638
Wind_Speed
25 24 24 24 24 24 24 24 24 23 23 22 23 22 20 19 19 18 18 18 18 17 16 16 15 15 14 14 14 14 14 14 13 13 13 11 11 10 10 9 9 9 9 9
25 25 25 25 25 25 25 24 25 24 24 23 22 22 21 20 19 19 19 18 17 17 17 17 17 16 16 15 15 16 15 15 14 14 14 13 12 12 11 11 11 11 11 11
24 25 26 26 25 25 24 25 25 25 24 23 23 22 21 20 20 19 19 18 18 18 18 18 18 17 17 16 16 17 17 17 16 15 15 14 14 13 13 13 13 13 13 13
24 25 27 26 25 25 25 26 25 25 24 23 23 22 21 21 21 20 20 20 19 19 19 19 18 17 17 17 17 17 18 18 18 17 17 16 16 16 16 15 15 15 15 15
25 25 26 27 25 25 26 27 26 25 24 24 24 23 23 22 22 22 22 21 21 21 21 20 19 19 19 18 17 18 18 18 18 18 18 18 18 17 17 17 17 17 17 17
25 25 25 27 26 25 25 26 26 25 24 24 23 24 23 23 22 22 22 22 22 22 22 21 20 20 19 18 18 18 19 19 19 19 19 18 18 18 19 20 20 20 19 18
25 25 26 26 25 24 25 25 24 24 24 24 23 23 23 23 22 22 22 22 22 22 22 21 21 20 19 20 20 20 20 20 20 19 19 18 18 18 19 19 19 19 19 20
24 25 27 26 25 25 25 25 24 24 23 23 23 22 22 22 22 22 22 23 22 22 22 22 21 21 21 21 21 21 21 22 21 21 21 20 20 20 19 19 19 19 19 20
25 26 26 26 25 25 25 24 24 23 22 23 22 22 22 22 22 23 23 23 23 23 23 23 23 23 23 23 23 23 23 23 22 22 22 22 22 21 20 20 20 20 20 20
23 24 25 25 25 25 25 24 23 23 23 23 23 22 22 21 21 22 23 23 23 23 23 23 23 24 24 24 24 24 23 24 24 24 23 23 22 22 21 21 21 21 21 21
21 21 23 24 24 24 24 23 22 23 23 23 23 22 22 21 22 21 21 22 22 22 23 23 24 24 24 25 25 25 25 25 25 24 23 22 23 23 23 23 22 23 22 21
19 20 21 22 23 24 23 22 21 21 22 22 22 22 22 22 22 22 21 21 22 22 23 23 23 24 25 26 25 25 24 24 24 24 24 24 24 24 25 24 24 23 23 23
18 19 20 21 21 22 21 21 21 20 20 20 21 22 22 22 22 21 21 21 21 22 23 23 23 24 24 24 24 24 24 23 23 23 22 22 23 24 25 24 24 23 23 23
17 18 18 19 19 20 21 21 21 20 20 21 21 21 21 22 22 21 21 22 21 21 22 23 22 22 23 23 22 23 23 22 22 22 22 22 22 22 22 22 22 23 23 23
16 15 15 16 16 17 18 19 19 19 20 21 21 21 20 20 21 21 21 21 20 20 20 21 21 21 21 22 22 22 22 22 21 21 21 21 21 21 21 21 22 22 22 23
14 14 14 13 14 15 16 16 17 17 17 19 19 20 20 21 21 21 20 21 20 20 19 20 20 19 19 19 20 20 20 20 20 20 20 20 20 20 20 21 21 21 21 21
13 14 14 14 13 13 14 14 15 16 16 17 18 18 19 20 20 20 20 20 20 19 19 19 20 19 18 18 19 20 20 20 20 21 21 21 21 21 21 20 20 21 21 20
12 13 13 13 12 13 13 14 14 15 15 16 16 16 17 19 19 19 20 20 20 20 20 20 20 20 20 20 20 20 20 21 21 21 21 22 22 22 22 22 21 21 21 21
12 12 12 13 13 13 13 14 14 14 14 14 14 15 16 17 18 18 18 18 19 19 19 19 20 20 20 20 20 20 20 20 21 21 21 22 22 22 22 22 22 22 21 21
14 14 13 13 13 13 13 13 14 14 14 13 13 13 13 14 15 16 17 17 18 18 18 18 18 19 19 20 20 20 20 20 20 21 21 21 21 21 21 21 21 22 22 22
12 12 13 12 13 13 13 13 13 13 13 13 13 13 13 14 15 15 16 16 17 17 18 18 19 19 19 20 20 20 20 20 20 20 21 21 21 21 21 20 21 21 22 22
11 12 12 12 12 11 12 13 13 13 13 14 14 14 14 14 14 15 15 15 16 17 17 18 18 18 18 19 19 19 20 20 20 20 20 20 20 19 19 20 20 21 21 22
12 11 11 12 12 13 12 12 12 13 13 14 14 14 13 14 14 14 14 15 15 16 16 16 16 16 17 18 19 19 19 20 19 19 19 19 18 18 19 20 20 21 21 22
12 12 12 12 13 13 12 12 12 12 12 13 14 13 13 14 14 14 14 15 16 16 16 16 17 17 17 18 18 19 19 19 19 19 20 20 20 20 20 20 21 21 22 22
11 12 13 12 12 12 12 13 13 13 13 13 14 14 14 14 14 15 15 16 16 16 16 17 17 18 18 18 19 19 19 19 19 19 20 20 21 21 22 22 22 22 22 23
11 12 13 14 14 14 14 14 14 14 14 14 14 15 15 15 15 15 15 16 16 17 17 18 18 18 18 18 18 18 19 19 19 20 20 20 21 22 23 23 23 23 23 23
12 12 13 14 15 15 15 15 15 15 16 16 16 15 16 16 17 17 17 17 17 18 18 19 19 19 19 18 19 19 20 20 20 20 20 21 21 21 22 22 22 22 22 22
Wind_Direction
232 234 238 240 243 244 245 248 250 254 258 261 265 267 265 265 262 263 264 264 262 263 261 260 260 258 259 258 256 255 255 255 258 260 263 266 264 264 263 265 265 267 266 264
235 236 239 241 242 244 246 250 252 254 257 260 260 262 262 262 262 262 263 263 261 261 261 260 257 254 255 256 257 255 253 254 256 257 259 264 261 260 261 263 265 269 272 271
237 239 240 242 243 246 248 252 255 257 258 257 257 257 259 260 261 262 261 260 258 258 259 258 256 252 251 255 255 255 254 252 253 255 257 262 262 257 257 261 264 267 270 271
238 240 243 245 245 247 251 253 255 255 254 255 256 255 257 259 259 258 258 256 255 255 255 255 255 254 253 254 252 254 254 253 252 254 255 256 259 258 257 261 266 268 270 270
238 243 246 247 247 247 249 249 251 252 254 256 258 256 256 257 258 256 255 253 251 252 253 254 254 255 256 256 254 253 254 253 252 252 253 256 259 260 261 262 265 268 269 269
240 245 248 251 252 250 250 251 249 251 253 256 257 256 255 256 257 254 254 251 248 250 252 252 254 254 256 254 254 254 255 254 253 252 253 256 259 261 262 264 265 266 267 268
240 245 248 252 251 250 248 249 251 252 254 256 254 257 256 256 255 253 252 249 248 249 249 249 252 253 254 255 254 254 255 255 254 255 256 259 261 264 265 266 268 267 267 267
240 242 245 249 250 249 250 252 254 255 254 252 252 254 256 255 252 251 251 249 248 248 248 249 251 252 254 256 256 254 254 253 254 255 257 261 264 265 267 270 271 271 271 272
240 242 247 249 249 251 253 255 255 253 251 249 250 252 255 255 254 253 250 250 249 249 250 248 248 251 254 255 255 254 253 252 253 255 258 260 262 263 266 269 271 271 272 273
242 244 245 248 249 253 254 254 253 250 250 249 251 252 252 252 252 250 250 248 248 249 250 249 251 253 253 254 255 255 254 253 254 255 258 260 260 261 263 266 268 269 271 271
241 245 247 248 251 253 252 251 250 249 250 250 251 249 250 251 250 250 250 249 247 248 248 250 252 253 254 254 255 255 255 254 252 254 257 260 261 262 264 267 268 268 270 271
241 243 244 247 250 252 252 253 252 248 247 246 247 247 249 250 249 248 251 252 252 251 251 251 253 255 256 256 257 258 257 255 253 255 257 260 263 263 264 266 267 267 268 270
242 242 244 249 251 251 251 252 250 247 247 246 245 247 247 247 247 247 248 252 253 253 252 252 255 256 255 254 255 256 255 253 254 256 258 261 262 264 264 264 266 267 268 270
242 244 244 247 249 250 250 251 249 245 246 246 247 248 247 246 246 247 249 252 254 255 254 254 256 256 255 254 255 255 252 253 255 256 258 262 264 265 266 266 268 270 271 272
235 239 242 245 248 251 250 247 245 247 248 247 249 249 246 243 244 246 247 249 252 254 255 255 255 256 254 253 253 253 254 254 257 257 260 263 265 267 269 270 271 273 273 273
238 240 243 246 251 254 250 248 248 248 248 247 248 247 246 247 248 249 248 249 252 254 255 256 255 254 253 253 252 254 255 255 256 256 259 263 266 268 270 271 272 273 274 273
240 241 242 245 248 250 247 246 247 250 251 249 249 248 247 247 246 247 247 248 252 254 254 254 254 252 252 253 254 254 255 256 258 258 262 265 266 268 269 270 271 272 272 271
242 243 244 246 248 251 251 251 253 252 253 252 250 248 246 246 246 248 248 248 250 252 253 253 254 252 253 256 256 257 257 259 260 260 262 265 267 268 268 269 270 271 269 269
242 244 247 247 252 253 253 253 255 254 254 254 252 246 245 248 250 249 248 249 249 252 255 257 258 256 257 258 258 258 258 260 261 262 265 266 267 267 267 269 268 267 266 267
245 246 249 249 251 253 255 258 259 258 255 253 251 249 250 251 248 247 246 246 248 252 255 256 257 256 255 256 257 257 259 260 262 264 266 266 266 267 268 269 269 268 267 266
248 247 248 250 252 254 256 258 259 257 254 251 253 254 253 252 250 249 249 250 253 254 254 253 255 256 257 256 256 258 259 261 263 263 264 264 265 268 270 270 269 269 267 267
249 249 248 251 253 256 257 258 258 256 256 256 256 257 255 254 254 255 257 259 259 256 256 258 258 258 258 257 256 257 259 261 262 262 261 262 264 267 269 270 271 270 269 268
248 252 253 254 257 260 261 259 256 255 257 256 256 255 256 259 259 261 263 263 262 259 258 258 258 258 259 258 257 258 260 261 261 261 261 261 263 267 270 273 274 273 272 272
245 251 254 256 256 257 257 258 259 258 258 259 259 259 262 261 258 259 260 262 263 261 259 257 257 258 259 259 259 260 259 259 260 262 262 263 265 268 271 273 275 275 273 272
247 250 251 252 252 252 254 256 256 255 258 259 259 259 262 263 260 259 260 261 261 259 258 258 260 260 260 260 259 258 259 261 263 264 265 266 268 270 272 274 275 276 276 276
248 250 250 251 252 254 255 257 258 258 259 260 260 259 258 259 260 260 261 262 262 261 260 261 262 264 265 261 259 258 260 263 265 266 267 268 269 271 272 273 275 276 276 277
251 252 252 254 254 255 256 258 258 258 259 262 263 260 259 259 261 262 264 265 265 265 265 266 266 266 265 263 262 263 262 263 266 268 269 270 271 273 274 275 276 277 277 277